IZ2OSD Weather Reports


time (UTC)temp
C
wind
direction
speed
KPH
gust
KPH
rain 1hr
cm
rain 24hr
cm
rain mn
cm
humidity
%
barometer
mb
20260509095330 22 270 1.6 3.2 0.00 0.00 0.00 47 1016.0
20260509094326 23 0.0 1.6 0.00 0.00 0.00 48 1016.3
20260509093318 22 270 0.0 1.6 0.00 0.00 0.00 52 1016.2
20260509092313 23 292 1.6 3.2 0.00 0.00 0.00 50 1015.9
20260509091330 23 292 1.6 3.2 0.00 0.00 0.00 52 1016.0
20260509090305 23 247 0.0 1.6 0.00 0.00 0.00 52 1016.0
20260509085255 22 292 0.0 1.6 0.00 0.00 0.00 54 1016.3
20260509084333 21 292 1.6 3.2 0.00 0.00 0.00 56 1016.4
20260509083309 22 0.0 0.0 0.00 0.00 0.00 54 1016.4
20260509082245 22 292 0.0 1.6 0.00 0.00 0.00 57 1016.2
20260509081241 21 292 1.6 3.2 0.00 0.00 0.00 57 1016.4
20260509080238 21 292 0.0 1.6 0.00 0.00 0.00 60 1016.3
20260509075234 21 292 0.0 1.6 0.00 0.00 0.00 59 1016.5
20260509074231 21 292 1.6 3.2 0.00 0.00 0.00 60 1016.7
20260509073249 21 292 0.0 3.2 0.00 0.00 0.00 58 1016.4
20260509072243 20 0.0 0.0 0.00 0.00 0.00 61 1016.3
20260509071220 20 292 0.0 1.6 0.00 0.00 0.00 61 1016.1
20260509070218 18 292 1.6 3.2 0.00 0.00 0.00 66 1016.4
20260509065255 18 292 0.0 1.6 0.00 0.00 0.00 67 1016.3
20260509064209 17 292 3.2 3.2 0.00 0.00 0.00 71 1016.2
20260509063206 16 292 1.6 4.8 0.00 0.00 0.00 75 1016.2
20260509062203 16 292 3.2 3.2 0.00 0.00 0.00 74 1016.0
20260509060911 15 292 3.2 3.2 0.00 0.00 0.00 76 1016.3
20260509055907 15 292 1.6 3.2 0.00 0.00 0.00 76 1016.3
20260509054923 15 292 1.6 3.2 0.00 0.00 0.00 77 1016.2
20260509053919 15 0.0 1.6 0.00 0.00 0.00 76 1016.3
20260509052855 15 0.0 0.0 0.00 0.00 0.00 77 1016.2
20260509051850 15 0.0 0.0 0.00 0.00 0.00 78 1016.1
20260509050906 13 315 0.0 1.6 0.00 0.00 0.00 80 1016.1
20260509045842 13 0.0 0.0 0.00 0.00 0.00 84 1015.9
20260509044838 12 0.0 0.0 0.00 0.00 0.00 86 1015.7
20260509043855 12 0.0 0.0 0.00 0.00 0.00 87 1015.6
20260509042831 11 0.0 0.0 0.00 0.00 0.00 88 1015.3
20260509041827 11 0.0 0.0 0.00 0.00 0.00 88 1015.5
20260509040825 11 0.0 0.0 0.00 0.00 0.00 89 1015.3
20260509035820 11 0.0 0.0 0.00 0.00 0.00 89 1015.3
20260509034817 11 0.0 0.0 0.00 0.00 0.00 88 1015.2
20260509033813 11 0.0 0.0 0.00 0.00 0.00 89 1015.4
20260509032811 11 0.0 0.0 0.00 0.00 0.00 89 1015.4
20260509031807 11 292 0.0 1.6 0.00 0.00 0.00 88 1015.3
20260509030825 11 0.0 0.0 0.00 0.00 0.00 89 1015.5
20260509025801 11 0.0 0.0 0.00 0.00 0.00 89 1015.3
20260509024758 11 0.0 1.6 0.00 0.00 0.00 89 1015.1
20260509023756 11 315 3.2 4.8 0.00 0.00 0.00 88 1015.1
20260509022753 11 315 0.0 1.6 0.00 0.00 0.00 88 1015.1
20260509021749 11 315 1.6 3.2 0.00 0.00 0.00 89 1015.2
20260509020745 11 315 4.8 6.4 0.00 0.00 0.00 89 1015.3
20260509015741 11 292 1.6 3.2 0.00 0.00 0.00 88 1015.3
20260509014800 12 292 1.6 3.2 0.00 0.00 0.00 88 1015.3
20260509013734 12 0.0 1.6 0.00 0.00 0.00 88 1015.6
20260509012731 12 0.0 0.0 0.00 0.00 0.00 88 1015.8
20260509011729 12 0.0 0.0 0.00 0.00 0.00 89 1015.6
20260509010725 12 292 0.0 1.6 0.00 0.00 0.00 89 1015.5
20260509005723 12 0.0 0.0 0.00 0.00 0.00 89 1015.3
20260509004719 12 0.0 0.0 0.00 0.00 0.00 88 1015.6
20260509003715 12 0.0 0.0 0.00 0.00 0.00 88 1015.5
20260509002711 12 0.0 0.0 0.00 0.00 0.00 87 1015.5
20260509001708 12 0.0 0.0 0.00 0.00 0.00 87 1015.7
20260509000705 12 292 1.6 1.6 0.00 0.00 0.00 87 1015.1
20260508235701 12 0.0 0.0 0.00 0.00 0.00 86 1015.3
20260508234657 12 292 0.0 1.6 0.00 0.00 0.00 86 1015.5
20260508233654 12 0.0 0.0 0.00 0.00 0.00 86 1015.4
20260508232651 12 292 1.6 3.2 0.00 0.00 0.00 86 1015.5
20260508231646 12 292 1.6 3.2 0.00 0.00 0.00 86 1015.4
20260508230642 13 0.0 0.0 0.00 0.00 0.00 86 1015.3
20260508225640 13 0.0 0.0 0.00 0.00 0.00 85 1015.1
20260508224638 13 0.0 0.0 0.00 0.00 0.00 85 1015.4
20260508223632 13 0.0 0.0 0.00 0.00 0.00 86 1015.5
20260508222648 13 292 0.0 1.6 0.00 0.00 0.00 87 1015.4
20260508221624 13 292 0.0 1.6 0.00 0.00 0.00 87 1015.3
20260508220621 13 0.0 0.0 0.00 0.00 0.00 86 1015.3
20260508215617 13 292 0.0 1.6 0.00 0.00 0.00 86 1015.3
20260508214615 13 292 1.6 3.2 0.00 0.00 0.00 85 1015.5
20260508213612 13 0.0 0.0 0.00 0.00 0.00 85 1015.3
20260508212608 13 0.0 0.0 0.00 0.00 0.00 85 1015.3
20260508211626 14 0.0 0.0 0.00 0.00 0.00 84 1015.3
20260508210601 14 0.0 0.0 0.00 0.00 0.00 82 1015.3
20260508205618 15 0.0 0.0 0.00 0.00 0.00 81 1015.1
20260508204554 15 0.0 0.0 0.00 0.00 0.00 81 1015.1
20260508203552 15 0.0 0.0 0.00 0.00 0.00 80 1015.1
20260508202607 15 0.0 0.0 0.00 0.00 0.00 79 1015.0
20260508201603 15 0.0 1.6 0.00 0.00 0.00 80 1015.1
20260508200540 15 292 1.6 3.2 0.00 0.00 0.00 79 1015.0
20260508195556 15 292 1.6 3.2 0.00 0.00 0.00 78 1015.0
20260508194532 15 292 0.0 1.6 0.00 0.00 0.00 77 1014.9
20260508193652 15 292 0.0 1.6 0.00 0.00 0.00 77 1014.5
20260508192525 15 292 1.6 4.8 0.00 0.00 0.00 77 1014.5
20260508191521 16 292 1.6 3.2 0.00 0.00 0.00 75 1014.4
20260508190518 16 0.0 0.0 0.00 0.00 0.00 73 1014.1
20260508185536 16 292 1.6 3.2 0.00 0.00 0.00 73 1014.0
20260508184509 16 292 1.6 3.2 0.00 0.00 0.00 71 1014.0
20260508183506 16 292 1.6 3.2 0.00 0.00 0.00 71 1013.9
20260508182504 17 292 1.6 3.2 0.00 0.00 0.00 71 1013.8
20260508182002 17 292 1.6 3.2 0.00 0.00 0.00 70 1014.0
20260508180958 17 0.0 1.6 0.00 0.00 0.00 70 1013.7
20260508175955 17 292 1.6 3.2 0.00 0.00 0.00 68 1013.9
20260508175011 17 292 1.6 3.2 0.00 0.00 0.00 69 1013.9
20260508173947 17 315 1.6 3.2 0.00 0.00 0.00 68 1013.8
20260508172943 17 292 3.2 4.8 0.00 0.00 0.00 67 1013.8
20260508171939 17 292 0.0 1.6 0.00 0.00 0.00 65 1013.8
20260508170936 17 292 3.2 4.8 0.00 0.00 0.00 65 1013.8
20260508165954 17 315 4.8 4.8 0.00 0.00 0.00 65 1013.6
20260508164930 17 315 3.2 4.8 0.00 0.00 0.00 65 1013.6
20260508163927 17 315 4.8 6.4 0.00 0.00 0.00 63 1013.6
20260508162923 17 315 4.8 6.4 0.00 0.00 0.00 62 1013.4
20260508161939 17 315 4.8 6.4 0.00 0.00 0.00 61 1013.6
20260508160916 17 292 9.7 14.5 0.00 0.00 0.00 59 1013.6
20260508155936 17 315 4.8 6.4 0.00 0.00 0.00 59 1013.6
20260508154910 18 292 4.8 9.7 0.00 0.00 0.00 57 1013.9
20260508153907 19 292 1.6 4.8 0.00 0.00 0.00 57 1014.0
20260508152904 20 315 3.2 4.8 0.00 0.00 0.00 62 1013.9
20260508151900 20 337 0.0 3.2 0.00 0.00 0.00 62 1014.1
20260508150857 20 270 1.6 4.8 0.00 0.00 0.00 63 1013.8
20260508145915 21 292 4.8 6.4 0.00 0.00 0.00 59 1013.8
20260508144849 21 292 0.0 1.6 0.00 0.00 0.00 57 1013.7
20260508143846 21 292 3.2 4.8 0.00 0.00 0.00 57 1014.0
20260508142842 21 292 1.6 3.2 0.00 0.00 0.00 57 1013.9
20260508141840 21 315 1.6 3.2 0.00 0.00 0.00 57 1013.9
20260508140836 21 112 1.6 4.8 0.00 0.00 0.00 58 1014.0
20260508135853 21 0.0 1.6 0.00 0.00 0.00 55 1014.0
20260508134829 21 112 1.6 4.8 0.00 0.00 0.00 55 1014.1
20260508133828 21 112 1.6 3.2 0.00 0.00 0.00 57 1014.0
20260508132822 21 112 1.6 3.2 0.00 0.00 0.00 55 1014.2
20260508131821 21 315 1.6 3.2 0.00 0.00 0.00 56 1014.2
20260508130816 21 315 1.6 3.2 0.00 0.00 0.00 59 1014.1
20260508125812 21 315 1.6 4.8 0.00 0.00 0.00 61 1014.4
20260508124811 21 0.0 0.0 0.00 0.00 0.00 57 1014.5
20260508123805 21 292 3.2 9.7 0.00 0.00 0.00 61 1014.3
20260508122802 21 112 1.6 6.4 0.00 0.00 0.00 60 1014.5
20260508121759 21 0.0 1.6 0.00 0.00 0.00 60 1014.2
20260508120758 20 112 4.8 9.7 0.00 0.00 0.00 60 1014.7
20260508115753 21 112 3.2 4.8 0.00 0.00 0.00 60 1014.6
20260508114749 20 112 1.6 3.2 0.00 0.00 0.00 61 1014.5
20260508113745 20 135 4.8 12.9 0.00 0.00 0.00 62 1014.5
20260508112741 19 112 3.2 4.8 0.00 0.00 0.00 62 1014.8
20260508111739 20 112 0.0 1.6 0.00 0.00 0.00 62 1014.6
20260508110735 19 315 3.2 6.4 0.00 0.00 0.00 62 1014.7
20260508105751 20 202 1.6 3.2 0.00 0.00 0.00 60 1014.7
20260508104729 19 292 3.2 6.4 0.00 0.00 0.00 62 1014.8
20260508103728 20 45 1.6 9.7 0.00 0.00 0.00 60 1014.7
20260508102721 18 112 3.2 4.8 0.00 0.00 0.00 64 1015.1
20260508101718 18 112 3.2 6.4 0.00 0.00 0.00 64 1015.1
20260508100717 19 67 4.8 9.7 0.00 0.00 0.00 64 1015.1
20260508095711 18 90 1.6 9.7 0.00 0.00 0.00 65 1015.1